When you browse on this site, cookies collect data to enhance your experience and personalize the content and advertising you see.
Visit our Privacy Policy to learn more. By continuing to use the site, you agree to this use of cookies and data.
  • In United Kingdom
  • List of Countries
  • For 7 days
  • Water Temperature
  • Satellite Maps
  • Weather Map
  • Weather Widgets
  • user-avatar
    Login

    Hourly Weather Tasmachi

    Today, 22 February, Friday

    Time Temperature Precipitation Wind Pressure Humidity
    00:00 0°C° 0 mm 3 mps 731 mmHg 57%
    01:00 0°C° 0 mm 3 mps 730 mmHg 56%
    02:00 0°C° 0 mm 3 mps 730 mmHg 55%
    03:00 0°C° 0 mm 3 mps 730 mmHg 54%
    04:00 0°C° 0 mm 3 mps 729 mmHg 54%
    05:00 0°C° 0 mm 3 mps 729 mmHg 53%
    06:00 0°C° 0 mm 3 mps 729 mmHg 52%
    07:00 0°C° 0 mm 3 mps 729 mmHg 51%
    08:00 +3°C° 0 mm 3 mps 729 mmHg 44%
    09:00 +5°C° 0 mm 3 mps 728 mmHg 38%
    10:00 +8°C° 0 mm 3 mps 728 mmHg 31%
    11:00 +9°C° 0 mm 3 mps 728 mmHg 28%
    12:00 +10°C° 0 mm 3 mps 728 mmHg 24%
    13:00 +12°C° 0 mm 2 mps 727 mmHg 21%
    14:00 +13°C° 0 mm 2 mps 727 mmHg 21%
    15:00 +13°C° 0 mm 2 mps 727 mmHg 22%
    16:00 +13°C° 0 mm 2 mps 727 mmHg 22%
    17:00 +10°C° 0 mm 3 mps 727 mmHg 27%
    18:00 +9°C° 0 mm 3 mps 727 mmHg 31%
    19:00 +7°C° 0 mm 3 mps 727 mmHg 36%
    20:00 +5°C° 0 mm 3 mps 727 mmHg 37%
    21:00 +5°C° 0 mm 3 mps 727 mmHg 37%
    22:00 +4°C° 0 mm 3 mps 727 mmHg 38%
    23:00 +4°C° 0 mm 3 mps 727 mmHg 37%

    Tomorrow, 23 February, Saturday

    Time Temperature Precipitation Wind Pressure Humidity
    00:00 +4°C° 0 mm 3 mps 727 mmHg 35%
    01:00 +4°C° 0 mm 3 mps 727 mmHg 34%
    02:00 +4°C° 0 mm 3 mps 727 mmHg 34%
    03:00 +4°C° 0 mm 3 mps 727 mmHg 35%
    04:00 +4°C° 0 mm 3 mps 726 mmHg 35%
    05:00 +4°C° 0 mm 3 mps 727 mmHg 35%
    06:00 +4°C° 0 mm 3 mps 727 mmHg 36%
    07:00 +5°C° 0 mm 2 mps 727 mmHg 36%
    08:00 +7°C° 0 mm 2 mps 727 mmHg 32%
    09:00 +9°C° 0 mm 2 mps 727 mmHg 28%
    10:00 +13°C° 0 mm 2 mps 727 mmHg 24%
    11:00 +13°C° 0 mm 2 mps 727 mmHg 22%
    12:00 +13°C° 0 mm 3 mps 726 mmHg 20%
    13:00 +14°C° 0 mm 3 mps 726 mmHg 18%
    14:00 +14°C° 0 mm 3 mps 726 mmHg 20%
    15:00 +14°C° 0 mm 3 mps 726 mmHg 22%
    16:00 +14°C° 0 mm 3 mps 726 mmHg 24%
    17:00 +13°C° 0 mm 2 mps 726 mmHg 30%
    18:00 +10°C° 0 mm 2 mps 726 mmHg 35%
    19:00 +10°C° 0 mm 1 mps 726 mmHg 41%
    20:00 +10°C° 0 mm 1 mps 726 mmHg 41%
    21:00 +9°C° 0 mm 1 mps 726 mmHg 41%
    22:00 +9°C° 0 mm 1 mps 726 mmHg 41%
    23:00 +8°C° 0 mm 1 mps 726 mmHg 43%

    Day after tomorrow, 24 February, Sunday

    Time Temperature Precipitation Wind Pressure Humidity
    00:00 +8°C° 0 mm 1 mps 726 mmHg 44%
    01:00 +7°C° 0 mm 1 mps 726 mmHg 45%
    02:00 +7°C° 0 mm 1 mps 726 mmHg 47%
    03:00 +5°C° 0 mm 0 mps 725 mmHg 48%
    04:00 +5°C° 0 mm 0 mps 725 mmHg 49%
    05:00 +5°C° 0 mm 0 mps 726 mmHg 50%
    06:00 +5°C° 0 mm 0 mps 726 mmHg 51%
    07:00 +6°C° 0 mm 1 mps 726 mmHg 52%
    08:00 +8°C° 0 mm 1 mps 726 mmHg 46%
    09:00 +10°C° 0 mm 1 mps 726 mmHg 41%
    10:00 +12°C° 0 mm 2 mps 726 mmHg 35%
    11:00 +12°C° 0 mm 2 mps 726 mmHg 32%
    12:00 +12°C° 0 mm 3 mps 726 mmHg 30%
    13:00 +13°C° 0 mm 3 mps 726 mmHg 27%
    14:00 +13°C° 0 mm 3 mps 726 mmHg 28%
    15:00 +13°C° 0 mm 3 mps 725 mmHg 28%
    16:00 +12°C° 0 mm 3 mps 725 mmHg 28%
    17:00 +11°C° 0 mm 3 mps 726 mmHg 32%
    18:00 +10°C° 0 mm 2 mps 726 mmHg 37%
    19:00 +9°C° 0 mm 2 mps 726 mmHg 42%
    20:00 +8°C° 0 mm 2 mps 726 mmHg 44%
    21:00 +8°C° 0 mm 1 mps 726 mmHg 46%
    22:00 +8°C° 0 mm 1 mps 726 mmHg 49%
    23:00 +7°C° 0 mm 1 mps 726 mmHg 50%

    25 February, Monday

    Time Temperature Precipitation Wind Pressure Humidity
    00:00 +5°C° 0 mm 0 mps 726 mmHg 52%
    01:00 +5°C° 0 mm 0 mps 726 mmHg 53%
    02:00 +5°C° 0 mm 0 mps 726 mmHg 54%
    03:00 +4°C° 0 mm 0 mps 726 mmHg 54%
    04:00 +4°C° 0 mm 0 mps 726 mmHg 55%
    05:00 +4°C° 0 mm 0 mps 726 mmHg 54%
    06:00 +4°C° 0 mm 0 mps 726 mmHg 54%
    07:00 +4°C° 0 mm 0 mps 727 mmHg 54%
    08:00 +6°C° 0 mm 0 mps 727 mmHg 47%
    09:00 +9°C° 0 mm 1 mps 727 mmHg 40%
    10:00 +11°C° 0 mm 1 mps 727 mmHg 33%
    11:00 +12°C° 0 mm 2 mps 726 mmHg 32%
    12:00 +12°C° 0 mm 2 mps 726 mmHg 31%
    13:00 +12°C° 0 mm 3 mps 726 mmHg 30%
    14:00 +12°C° 0 mm 3 mps 726 mmHg 30%
    15:00 +12°C° 0 mm 3 mps 725 mmHg 31%
    16:00 +12°C° 0 mm 3 mps 725 mmHg 31%
    17:00 +11°C° 0 mm 3 mps 725 mmHg 36%
    18:00 +10°C° 0 mm 2 mps 726 mmHg 40%
    19:00 +9°C° 0 mm 2 mps 726 mmHg 44%
    20:00 +9°C° 0 mm 1 mps 726 mmHg 47%
    21:00 +8°C° 0 mm 1 mps 726 mmHg 49%
    22:00 +8°C° 0 mm 1 mps 725 mmHg 51%
    23:00 +6°C° 0 mm 0 mps 725 mmHg 52%

    26 February, Tuesday

    Time Temperature Precipitation Wind Pressure Humidity
    00:00 +6°C° 0 mm 0 mps 725 mmHg 53%
    01:00 +5°C° 0 mm 0 mps 725 mmHg 54%
    02:00 +5°C° 0 mm 0 mps 724 mmHg 54%
    03:00 +5°C° 0 mm 0 mps 724 mmHg 54%
    04:00 +4°C° 0 mm 0 mps 724 mmHg 54%
    05:00 +5°C° 0 mm 1 mps 724 mmHg 54%
    06:00 +6°C° 0 mm 1 mps 724 mmHg 54%
    07:00 +6°C° 0 mm 1 mps 724 mmHg 53%
    08:00 +7°C° 0 mm 2 mps 724 mmHg 47%
    09:00 +8°C° 0 mm 2 mps 724 mmHg 42%
    10:00 +10°C° 0 mm 3 mps 724 mmHg 36%
    11:00 +11°C° 0 mm 4 mps 724 mmHg 35%
    12:00 +10°C° 0 mm 5 mps 723 mmHg 33%
    13:00 +11°C° 0 mm 6 mps 723 mmHg 32%
    14:00 +11°C° 0 mm 6 mps 723 mmHg 34%
    15:00 +10°C° 0 mm 6 mps 723 mmHg 36%
    16:00 +10°C° 0 mm 5 mps 722 mmHg 37%
    17:00 +10°C° 0 mm 4 mps 722 mmHg 43%
    18:00 +9°C° 0 mm 3 mps 723 mmHg 49%
    19:00 +8°C° 0 mm 2 mps 723 mmHg 54%
    20:00 +8°C° 0 mm 1 mps 722 mmHg 57%
    21:00 +8°C° 0 mm 1 mps 722 mmHg 60%
    22:00 +6°C° 0 mm 0 mps 722 mmHg 63%
    23:00 +7°C° 0 mm 1 mps 722 mmHg 62%

    27 February, Wednesday

    Time Temperature Precipitation Wind Pressure Humidity
    00:00 +6°C° 0 mm 2 mps 721 mmHg 61%
    01:00 +5°C° 0 mm 2 mps 721 mmHg 60%
    02:00 +5°C° 0 mm 2 mps 720 mmHg 61%
    03:00 +4°C° 0 mm 3 mps 720 mmHg 61%
    04:00 +3°C° 0 mm 3 mps 720 mmHg 61%
    05:00 +3°C° 0 mm 3 mps 719 mmHg 60%
    06:00 +3°C° 0 mm 3 mps 719 mmHg 59%
    07:00 +4°C° 0 mm 3 mps 719 mmHg 58%
    08:00 +7°C° 0 mm 3 mps 719 mmHg 50%
    09:00 +8°C° 0 mm 4 mps 718 mmHg 43%
    10:00 +11°C° 0 mm 4 mps 718 mmHg 35%
    11:00 +12°C° 0 mm 5 mps 717 mmHg 32%
    12:00 +13°C° 0 mm 5 mps 716 mmHg 29%
    13:00 +14°C° 0 mm 6 mps 715 mmHg 26%
    14:00 +14°C° 0 mm 6 mps 715 mmHg 25%
    15:00 +15°C° 0 mm 6 mps 714 mmHg 24%
    16:00 +15°C° 0 mm 6 mps 714 mmHg 23%
    17:00 +14°C° 0 mm 5 mps 714 mmHg 26%
    18:00 +12°C° 0 mm 4 mps 714 mmHg 29%
    19:00 +11°C° 0 mm 3 mps 714 mmHg 33%
    20:00 +10°C° 0 mm 4 mps 713 mmHg 34%
    21:00 +10°C° 0 mm 4 mps 713 mmHg 36%
    22:00 +8°C° 0 mm 5 mps 712 mmHg 38%
    23:00 +8°C° 0 mm 4 mps 711 mmHg 37%
    Show more